User: anonymous   Login
Location: Fort Wayne
(41.1310°N, 85.1290°W)
Time: 20:22:07
(UTC-04:00)
Language:

Cosmos 2219 Rocket - Orbit

View from above orbital plane
View from above orbital plane
View from above satellite
View from above satellite

Ground track
Ground track

The orbit data is extracted from the following two-line orbital elements,

1 22220U 92076B   16147.17145894 -.00000272  00000-0 -11254-3 0  9999
2 22220  70.9981 153.8829 0011606 152.0716 255.4437 14.16397886215973
Epoch (UTC): 26 May 2016 04:06:54
Eccentricity: 0.0011606
inclination: 70.9981°
perigee height: 829 km
apogee height: 846 km
right ascension of ascending node: 153.8829°
argument of perigee: 152.0716°
revolutions per day: 14.16397886
mean anomaly at epoch: 255.4437°
orbit number at epoch: 21597

The dashed part of the orbit path shows where the satellite is in the earth's shadow,  

DLR